{"data":{"norad_id":68999,"epoch":"2026-05-25T00:00:02.000160Z","epoch_age_seconds":75803,"freshness":"FRESH","line1":"1 68999U 26100V   26145.00002315  .00030083  00000+0  29768-2 0  9996","line2":"2 68999  97.7365  42.8821 0002189 181.9528 180.8007 14.91799245  1870","mean_motion":14.91799245,"eccentricity":0.0002189,"inclination_deg":97.7365,"raan_deg":42.8821,"arg_perigee_deg":181.9528,"mean_anomaly_deg":180.8007,"bstar":0.0029768,"rev_number":187,"period_min":96.527733528917,"perigee_km":590.79951929093,"apogee_km":593.85118770929,"semimajor_km":6970.4623535001,"source":"CELESTRAK","updated_at":"2026-05-25T13:38:09.034881Z"}}